ACA873 LFPG-CYYZ

Flight info

Callsign ACA873
Flight time N/A
Altitude 34000
Route LGL6H/08L LGL UN502 JSY DCT LIZAD DCT MOPAT DCT DOGAL/M083F350 DCT 54N020W 54N030W 53N040W 51N050W DCT ALLRY/N0476F360 DCT QUBIS/N0483F380 DCT LETAK IMEBA9
Aircraft B77W/H-SDE1E2E3FGHIJ2J3J4J5M1RWXY/LB1D1

Departure

Time 2026-05-08 21:21
Airport Charles de Gaulle International Airport (LFPG)

Arrival

Time N/A
Airport Toronto Pearson International Airport (CYYZ)
Time Latitude Longitude Altitude Speed Heading
2026-05-08 20:46 49.00156 2.56254 367 ft 0 kts 344°
2026-05-08 21:08 49.00134 2.56264 365 ft 4 kts 346°
2026-05-08 21:08 49.00111 2.56271 363 ft 4 kts 343°
2026-05-08 21:09 49.00094 2.56291 368 ft 4 kts 277°
2026-05-08 21:09 49.00096 2.56331 363 ft 4 kts 259°
2026-05-08 21:09 49.00100 2.56368 361 ft 1 kts 265°
2026-05-08 21:09 49.00100 2.56369 361 ft 0 kts 265°
2026-05-08 21:12 49.00100 2.56368 359 ft 0 kts 265°
2026-05-08 21:12 49.00096 2.56292 359 ft 12 kts 265°
2026-05-08 21:13 49.00089 2.56167 366 ft 12 kts 265°
2026-05-08 21:13 49.00083 2.56044 364 ft 11 kts 265°
2026-05-08 21:13 49.00077 2.55933 362 ft 11 kts 265°
2026-05-08 21:13 49.00073 2.55822 365 ft 11 kts 268°
2026-05-08 21:14 49.00072 2.55710 359 ft 11 kts 268°
2026-05-08 21:14 49.00048 2.55607 368 ft 11 kts 241°
2026-05-08 21:14 49.00019 2.55533 366 ft 7 kts 237°
2026-05-08 21:14 48.99992 2.55473 366 ft 5 kts 226°
2026-05-08 21:15 48.99971 2.55434 366 ft 5 kts 237°
2026-05-08 21:15 48.99945 2.55402 367 ft 5 kts 204°
2026-05-08 21:15 48.99929 2.55394 367 ft 0 kts 194°
2026-05-08 21:16 48.99912 2.55402 365 ft 7 kts 148°
2026-05-08 21:16 48.99899 2.55516 359 ft 12 kts 91°
2026-05-08 21:16 48.99865 2.55631 366 ft 12 kts 118°
2026-05-08 21:16 48.99831 2.55744 361 ft 12 kts 114°
2026-05-08 21:17 48.99792 2.55797 365 ft 1 kts 173°
2026-05-08 21:17 48.99791 2.55798 365 ft 0 kts 173°
2026-05-08 21:18 48.99754 2.55804 364 ft 14 kts 173°
2026-05-08 21:19 48.99657 2.55818 365 ft 14 kts 175°
2026-05-08 21:19 48.99602 2.55863 366 ft 7 kts 112°
2026-05-08 21:19 48.99602 2.55894 364 ft 0 kts 85°
2026-05-08 21:20 48.99607 2.55987 359 ft 28 kts 85°
2026-05-08 21:20 48.99643 2.56657 365 ft 98 kts 85°
2026-05-08 21:20 48.99716 2.58011 368 ft 156 kts 85°
2026-05-08 21:21 48.99806 2.59840 579 ft 178 kts 85°
2026-05-08 21:21 48.99885 2.61753 1072 ft 187 kts 85°
2026-05-08 21:21 48.99959 2.63682 1793 ft 181 kts 86°
2026-05-08 21:21 49.00033 2.65566 2456 ft 178 kts 86°
2026-05-08 21:22 49.00121 2.67565 2642 ft 201 kts 86°
2026-05-08 21:22 49.00225 2.69814 2812 ft 225 kts 86°
2026-05-08 21:22 49.00367 2.72289 3037 ft 247 kts 85°
2026-05-08 21:22 49.00514 2.74952 3572 ft 257 kts 86°
2026-05-08 21:23 49.00623 2.77721 4177 ft 263 kts 88°
2026-05-08 21:23 49.00523 2.80476 4902 ft 261 kts 101°
2026-05-08 21:23 49.00147 2.83189 5603 ft 263 kts 103°
2026-05-08 21:23 48.99704 2.85921 6162 ft 267 kts 113°
2026-05-08 21:24 48.98580 2.88211 6474 ft 276 kts 148°
2026-05-08 21:24 48.96817 2.89097 7228 ft 266 kts 183°
2026-05-08 21:24 48.95067 2.88393 7821 ft 260 kts 212°
2026-05-08 21:24 48.93591 2.86836 8348 ft 262 kts 220°
2026-05-08 21:25 48.92355 2.84725 8621 ft 273 kts 242°
2026-05-08 21:25 48.91814 2.81954 9231 ft 273 kts 264°
2026-05-08 21:25 48.91731 2.79068 9844 ft 276 kts 267°
2026-05-08 21:25 48.91652 2.76133 10390 ft 282 kts 266°
2026-05-08 21:26 48.91554 2.73044 10589 ft 303 kts 266°
2026-05-08 21:26 48.91437 2.69726 10766 ft 325 kts 266°
2026-05-08 21:26 48.91299 2.66185 10949 ft 347 kts 265°
2026-05-08 21:26 48.91142 2.62441 11407 ft 360 kts 265°
2026-05-08 21:27 48.90971 2.58590 12036 ft 369 kts 265°
2026-05-08 21:27 48.90789 2.54663 12874 ft 374 kts 265°
2026-05-08 21:27 48.90600 2.50705 13751 ft 378 kts 265°
2026-05-08 21:27 48.90404 2.46691 14525 ft 383 kts 265°
2026-05-08 21:28 48.90203 2.42651 15347 ft 385 kts 265°
2026-05-08 21:28 48.89999 2.38581 16181 ft 387 kts 265°
2026-05-08 21:28 48.89791 2.34488 16994 ft 390 kts 265°
2026-05-08 21:28 48.89583 2.30408 17779 ft 394 kts 265°
2026-05-08 21:29 48.89366 2.26191 18547 ft 397 kts 265°
2026-05-08 21:29 48.89148 2.21986 19159 ft 402 kts 265°
2026-05-08 21:29 48.88924 2.17709 19723 ft 409 kts 265°
2026-05-08 21:29 48.88699 2.13429 20242 ft 416 kts 265°
2026-05-08 21:30 48.88466 2.09027 20818 ft 421 kts 265°
2026-05-08 21:30 48.88228 2.04572 21416 ft 425 kts 265°
2026-05-08 21:30 48.87986 2.00066 21986 ft 430 kts 266°
2026-05-08 21:30 48.87739 1.95502 22535 ft 436 kts 266°
2026-05-08 21:31 48.87487 1.90889 23071 ft 441 kts 266°
2026-05-08 21:31 48.87230 1.86216 23584 ft 446 kts 266°
2026-05-08 21:31 48.86970 1.81509 24066 ft 450 kts 266°
2026-05-08 21:31 48.86706 1.76788 24587 ft 452 kts 266°
2026-05-08 21:32 48.86437 1.72017 25119 ft 455 kts 265°
2026-05-08 21:32 48.86165 1.67222 25597 ft 457 kts 265°
2026-05-08 21:32 48.85890 1.62400 26082 ft 460 kts 265°
2026-05-08 21:32 48.85611 1.57550 26551 ft 463 kts 265°
2026-05-08 21:33 48.85328 1.52658 26993 ft 466 kts 265°
2026-05-08 21:33 48.85042 1.47749 27431 ft 469 kts 265°
2026-05-08 21:33 48.84751 1.42808 27872 ft 471 kts 265°
2026-05-08 21:33 48.84457 1.37838 28304 ft 473 kts 265°
2026-05-08 21:34 48.84160 1.32851 28704 ft 476 kts 265°
2026-05-08 21:34 48.83859 1.27836 29058 ft 479 kts 264°
2026-05-08 21:34 48.83553 1.22782 29375 ft 482 kts 264°
2026-05-08 21:34 48.83244 1.17719 29856 ft 481 kts 264°
2026-05-08 21:35 48.82933 1.12676 30392 ft 478 kts 264°
2026-05-08 21:35 48.82728 1.09354 30737 ft 476 kts 264°
2026-05-08 21:35 48.82313 1.02682 31389 ft 473 kts 264°
2026-05-08 21:35 48.82003 0.97735 31820 ft 471 kts 264°
2026-05-08 21:36 48.81691 0.92793 32233 ft 470 kts 264°
2026-05-08 21:36 48.81483 0.89527 32498 ft 469 kts 264°
2026-05-08 21:36 48.81064 0.82962 32996 ft 468 kts 264°
2026-05-08 21:36 48.80747 0.78041 33345 ft 468 kts 264°
2026-05-08 21:37 48.80429 0.73146 33751 ft 466 kts 264°
2026-05-08 21:37 48.80219 0.69920 34019 ft 464 kts 264°
2026-05-08 21:37 48.79898 0.65016 34053 ft 469 kts 264°
2026-05-08 21:38 48.79496 0.55165 34052 ft 466 kts 272°
2026-05-08 21:38 48.80644 0.43942 34060 ft 464 kts 285°
2026-05-08 21:39 48.82150 0.36044 34062 ft 466 kts 284°
2026-05-08 21:39 48.83879 0.26551 34064 ft 468 kts 284°
2026-05-08 21:40 48.85588 0.16986 34065 ft 470 kts 284°
2026-05-08 21:40 48.87299 0.07369 34059 ft 472 kts 284°
2026-05-08 21:41 48.89859 -0.07092 34047 ft 474 kts 283°
2026-05-08 21:41 48.91560 -0.16766 34058 ft 474 kts 283°
2026-05-08 21:42 48.93254 -0.26453 34060 ft 474 kts 283°
2026-05-08 21:42 48.94900 -0.36167 34065 ft 474 kts 283°
2026-05-08 21:43 48.96521 -0.45885 34066 ft 474 kts 283°
2026-05-08 21:43 48.98138 -0.55602 34063 ft 473 kts 283°
2026-05-08 21:44 48.99750 -0.65317 34065 ft 473 kts 283°
2026-05-08 21:44 49.01341 -0.74959 34059 ft 473 kts 283°
2026-05-08 21:45 49.02935 -0.84672 34055 ft 473 kts 282°
2026-05-08 21:45 49.04522 -0.94402 34043 ft 473 kts 282°
2026-05-08 21:46 49.06102 -1.04151 34042 ft 475 kts 282°
2026-05-08 21:46 49.07681 -1.13939 34048 ft 476 kts 282°
2026-05-08 21:47 49.09260 -1.23732 34033 ft 475 kts 282°
2026-05-08 21:47 49.10848 -1.33513 34048 ft 474 kts 282°
2026-05-08 21:48 49.12429 -1.43294 34031 ft 475 kts 282°
2026-05-08 21:48 49.13998 -1.53082 34033 ft 474 kts 282°
2026-05-08 21:49 49.15557 -1.62871 34028 ft 475 kts 282°
2026-05-08 21:49 49.17110 -1.72678 34033 ft 475 kts 282°
2026-05-08 21:50 49.18656 -1.82499 34035 ft 476 kts 281°
2026-05-08 21:50 49.20197 -1.92353 34025 ft 477 kts 281°
2026-05-08 21:51 49.21735 -2.02236 34024 ft 478 kts 281°
2026-05-08 21:51 49.23336 -2.12106 34028 ft 479 kts 283°
2026-05-08 21:52 49.25050 -2.21962 34046 ft 479 kts 283°
2026-05-08 21:52 49.26760 -2.31835 34036 ft 480 kts 282°
2026-05-08 21:53 49.28446 -2.41734 34042 ft 480 kts 282°
2026-05-08 21:53 49.30116 -2.51635 34041 ft 480 kts 282°
2026-05-08 21:54 49.31771 -2.61519 34045 ft 479 kts 282°
2026-05-08 21:54 49.34286 -2.76639 34037 ft 479 kts 282°
2026-05-08 21:55 49.37543 -2.96424 34022 ft 478 kts 282°
2026-05-08 21:56 49.42343 -3.26002 34022 ft 479 kts 281°
2026-05-08 21:56 49.45521 -3.45880 34027 ft 479 kts 281°
2026-05-08 21:57 49.48674 -3.65840 34027 ft 481 kts 280°
2026-05-08 21:57 49.51802 -3.85895 34027 ft 483 kts 280°
2026-05-08 21:58 49.54910 -4.06062 34043 ft 485 kts 280°
2026-05-08 21:58 49.58020 -4.26327 34023 ft 486 kts 283°
2026-05-08 21:58 49.61099 -4.35643 34024 ft 495 kts 307°
2026-05-08 21:59 49.66110 -4.42933 34047 ft 496 kts 318°
2026-05-08 21:59 49.76517 -4.57057 34053 ft 499 kts 316°
2026-05-08 22:00 49.86890 -4.71461 34046 ft 502 kts 316°
2026-05-08 22:00 49.97289 -4.85954 34045 ft 502 kts 316°
2026-05-08 22:01 50.07644 -5.00471 34047 ft 501 kts 315°
2026-05-08 22:01 50.17952 -5.15013 34048 ft 498 kts 315°
2026-05-08 22:02 50.28188 -5.29541 34040 ft 496 kts 315°
2026-05-08 22:02 50.38359 -5.44064 34057 ft 493 kts 315°
2026-05-08 22:03 50.48457 -5.58571 34064 ft 491 kts 315°
2026-05-08 22:03 50.58503 -5.73091 34059 ft 489 kts 314°
2026-05-08 22:04 50.68415 -5.87504 34059 ft 487 kts 314°
2026-05-08 22:04 50.78343 -6.02027 34068 ft 486 kts 314°
2026-05-08 22:05 50.88237 -6.16590 34071 ft 486 kts 314°
2026-05-08 22:05 50.98133 -6.31244 34076 ft 487 kts 314°
2026-05-08 22:06 51.08020 -6.45975 34080 ft 488 kts 314°
2026-05-08 22:06 51.17905 -6.60792 34095 ft 489 kts 313°
2026-05-08 22:07 51.27820 -6.75749 34095 ft 491 kts 313°
2026-05-08 22:07 51.37728 -6.90789 34117 ft 491 kts 312°
2026-05-08 22:08 51.47615 -7.05925 34092 ft 490 kts 310°
2026-05-08 22:08 51.51842 -7.14354 34102 ft 481 kts 297°
2026-05-08 22:08 51.55173 -7.23635 34125 ft 479 kts 295°
2026-05-08 22:09 51.61921 -7.42160 34118 ft 480 kts 295°
2026-05-08 22:09 51.68680 -7.60723 34105 ft 480 kts 295°
2026-05-08 22:10 51.75394 -7.79323 34121 ft 479 kts 295°
2026-05-08 22:10 51.82040 -7.97871 34116 ft 478 kts 295°
2026-05-08 22:11 51.88654 -8.16467 34108 ft 476 kts 295°
2026-05-08 22:11 51.95217 -8.35055 34118 ft 474 kts 295°
2026-05-08 22:12 52.01740 -8.53667 34137 ft 474 kts 294°
2026-05-08 22:12 52.08224 -8.72306 34112 ft 473 kts 294°
2026-05-08 22:13 52.14397 -8.90182 34062 ft 473 kts 294°
2026-05-08 22:13 52.22857 -9.14882 34231 ft 471 kts 293°
2026-05-08 22:14 52.35587 -9.52530 34157 ft 475 kts 292°
2026-05-08 22:14 52.48164 -9.90289 34160 ft 475 kts 292°
2026-05-08 22:15 52.60669 -10.28416 34202 ft 472 kts 291°
2026-05-08 22:15 52.72938 -10.66405 34177 ft 467 kts 291°
2026-05-08 22:16 52.85038 -11.04461 34190 ft 462 kts 290°
2026-05-08 22:16 52.96776 -11.41962 34214 ft 460 kts 290°
2026-05-08 22:17 53.05913 -11.71558 34236 ft 459 kts 290°
2026-05-08 22:17 53.16829 -12.07398 34263 ft 460 kts 290°
2026-05-08 22:18 53.28287 -12.45613 34248 ft 461 kts 290°
2026-05-08 22:18 53.39635 -12.84065 34282 ft 460 kts 289°
2026-05-08 22:19 53.50821 -13.22599 34275 ft 458 kts 289°
2026-05-08 22:19 53.61819 -13.61109 34306 ft 456 kts 290°
2026-05-08 22:20 53.72656 -13.99683 34327 ft 454 kts 290°
2026-05-08 22:20 53.83339 -14.38357 34312 ft 453 kts 290°
2026-05-08 22:21 53.93886 -14.77186 34348 ft 454 kts 291°
2026-05-08 22:21 54.00375 -15.17842 34372 ft 448 kts 269°
2026-05-08 22:22 54.00971 -15.53159 34387 ft 451 kts 271°
2026-05-08 22:22 54.01688 -16.03239 34366 ft 456 kts 271°
2026-05-08 22:23 54.02138 -16.46511 34399 ft 459 kts 271°
2026-05-08 22:23 54.02435 -16.90066 34388 ft 461 kts 271°
2026-05-08 22:24 54.02572 -17.33656 34374 ft 463 kts 273°
2026-05-08 22:24 54.02571 -17.70683 34403 ft 479 kts 272°
2026-05-08 22:25 54.02406 -18.15902 34366 ft 472 kts 272°
2026-05-08 22:25 54.02082 -18.60762 34451 ft 483 kts 272°
2026-05-08 22:26 54.01657 -18.99917 34963 ft 491 kts 273°
2026-05-08 22:26 54.01584 -19.05701 35282 ft 489 kts 273°
2026-05-08 22:26 54.01507 -19.11470 35670 ft 486 kts 272°
2026-05-08 22:26 54.01428 -19.17186 36046 ft 483 kts 272°
2026-05-08 22:27 54.01347 -19.22887 36350 ft 482 kts 272°
2026-05-08 22:27 54.01134 -19.37432 36373 ft 494 kts 273°
2026-05-08 22:27 54.00745 -19.60953 36447 ft 498 kts 272°
2026-05-08 22:28 54.00172 -20.06992 36361 ft 473 kts 279°
2026-05-08 22:28 54.02046 -20.51789 36474 ft 484 kts 279°
2026-05-08 22:29 54.03656 -20.97614 36403 ft 479 kts 278°
2026-05-08 22:29 54.05068 -21.42227 36467 ft 472 kts 278°
2026-05-08 22:30 54.06338 -21.87739 36500 ft 489 kts 278°
2026-05-08 22:30 54.07426 -22.33435 36416 ft 474 kts 278°
2026-05-08 22:31 54.08343 -22.78241 36484 ft 479 kts 279°
2026-05-08 22:31 54.09097 -23.24307 36466 ft 486 kts 279°
2026-05-08 22:31 54.09401 -23.47056 36408 ft 475 kts 279°
2026-05-08 22:32 54.09667 -23.69398 36452 ft 470 kts 279°
2026-05-08 22:32 54.10082 -24.14709 36543 ft 488 kts 278°
2026-05-08 22:33 54.10306 -24.60751 36447 ft 475 kts 279°
2026-05-08 22:33 54.10379 -25.05340 36534 ft 474 kts 278°
2026-05-08 22:34 54.10272 -25.51126 36523 ft 488 kts 278°
2026-05-08 22:34 54.10144 -25.74035 36454 ft 477 kts 278°
2026-05-08 22:34 54.09985 -25.96378 36460 ft 467 kts 278°
2026-05-08 22:35 54.09561 -26.41078 36562 ft 482 kts 278°
2026-05-08 22:35 54.08922 -26.87085 36463 ft 480 kts 278°
2026-05-08 22:36 54.08150 -27.31789 36533 ft 471 kts 278°
2026-05-08 22:36 54.07703 -27.54354 36571 ft 482 kts 278°
2026-05-08 22:36 54.07195 -27.77359 36593 ft 490 kts 278°
2026-05-08 22:37 54.06044 -28.22900 36478 ft 475 kts 278°
2026-05-08 22:37 54.04776 -28.67639 36588 ft 478 kts 278°
2026-05-08 22:38 54.03280 -29.13590 36567 ft 488 kts 277°
2026-05-08 22:38 54.02466 -29.36403 36507 ft 476 kts 277°
2026-05-08 22:38 54.01631 -29.58951 36536 ft 469 kts 277°
2026-05-08 22:39 53.99848 -30.03454 36624 ft 485 kts 276°
2026-05-08 22:39 53.97089 -30.49420 36519 ft 483 kts 275°
2026-05-08 22:39 53.95709 -30.71755 36522 ft 471 kts 275°
2026-05-08 22:40 53.94314 -30.93873 36564 ft 473 kts 275°
2026-05-08 22:40 53.91314 -31.39131 36628 ft 490 kts 274°
2026-05-08 22:41 53.88113 -31.84446 36518 ft 475 kts 273°
2026-05-08 22:41 53.84863 -32.28439 36610 ft 473 kts 272°
2026-05-08 22:42 53.81350 -32.73468 36586 ft 484 kts 271°
2026-05-08 22:42 53.77975 -33.14707 36492 ft 468 kts 271°
2026-05-08 22:42 53.76394 -33.33541 36598 ft 470 kts 270°
2026-05-08 22:43 53.74498 -33.55650 36628 ft 480 kts 270°
2026-05-08 22:43 53.70513 -34.00335 36536 ft 476 kts 270°
2026-05-08 22:44 53.66481 -34.43840 36569 ft 469 kts 269°
2026-05-08 22:44 53.64385 -34.65813 36614 ft 480 kts 269°
2026-05-08 22:44 53.62196 -34.88220 36560 ft 486 kts 268°
2026-05-08 22:45 53.57731 -35.32526 36492 ft 471 kts 268°
2026-05-08 22:45 53.53219 -35.75840 36558 ft 476 kts 267°
2026-05-08 22:46 53.48466 -36.19689 36519 ft 478 kts 266°
2026-05-08 22:46 53.43563 -36.63366 36472 ft 470 kts 266°
2026-05-08 22:47 53.38714 -37.05178 36490 ft 459 kts 265°
2026-05-08 22:47 53.34200 -37.42961 36487 ft 469 kts 264°
2026-05-08 22:48 53.28929 -37.85683 36425 ft 458 kts 264°
2026-05-08 22:48 53.23731 -38.26632 36465 ft 455 kts 263°
2026-05-08 22:49 53.18583 -38.66024 36440 ft 465 kts 262°
2026-05-08 22:49 53.13008 -39.07459 36376 ft 450 kts 262°
2026-05-08 22:49 53.10235 -39.27680 36406 ft 450 kts 262°
2026-05-08 22:50 53.04452 -39.68964 36419 ft 464 kts 260°
2026-05-08 22:50 52.98513 -40.09964 36322 ft 448 kts 259°
2026-05-08 22:51 52.92366 -40.50027 36397 ft 455 kts 259°
2026-05-08 22:51 52.85938 -40.90997 36303 ft 453 kts 257°
2026-05-08 22:52 52.82770 -41.10826 36272 ft 441 kts 257°
2026-05-08 22:52 52.79610 -41.30391 36336 ft 442 kts 257°
2026-05-08 22:52 52.76362 -41.50266 36362 ft 454 kts 257°
2026-05-08 22:52 52.73011 -41.70514 36321 ft 459 kts 257°
2026-05-08 22:53 52.71061 -41.84216 36245 ft 448 kts 270°
2026-05-08 22:53 52.72005 -41.94095 36262 ft 432 kts 277°
2026-05-08 22:53 52.71846 -42.00120 36285 ft 438 kts 256°
2026-05-08 22:53 52.69723 -42.10709 36271 ft 448 kts 253°
2026-05-08 22:54 52.66216 -42.30102 36262 ft 443 kts 255°
2026-05-08 22:54 52.59674 -42.67863 36244 ft 456 kts 255°
2026-05-08 22:55 52.52598 -43.07710 36202 ft 448 kts 254°
2026-05-08 22:55 52.50688 -43.18318 36210 ft 445 kts 253°
2026-05-08 22:56 52.48919 -43.28086 36204 ft 448 kts 253°
2026-05-08 22:56 52.47133 -43.37899 36197 ft 450 kts 253°
2026-05-08 22:57 52.45337 -43.47710 36187 ft 449 kts 253°
2026-05-08 22:57 52.43534 -43.57508 36186 ft 448 kts 253°
2026-05-08 22:58 52.41729 -43.67267 36174 ft 447 kts 252°
2026-05-08 22:58 52.39921 -43.76996 36170 ft 447 kts 252°
2026-05-08 22:59 52.38104 -43.86715 36167 ft 446 kts 252°
2026-05-08 22:59 52.36288 -43.96380 36169 ft 446 kts 252°
2026-05-08 23:00 52.34453 -44.06093 36152 ft 447 kts 252°
2026-05-08 23:00 52.32612 -44.15792 36151 ft 447 kts 252°
2026-05-08 23:01 52.30775 -44.25420 36148 ft 447 kts 252°
2026-05-08 23:01 52.28935 -44.35013 36152 ft 447 kts 251°
2026-05-08 23:02 52.27070 -44.44692 36133 ft 447 kts 251°
2026-05-08 23:02 52.25198 -44.54354 36123 ft 446 kts 251°
2026-05-08 23:03 52.23318 -44.64008 36119 ft 446 kts 251°
2026-05-08 23:03 52.21456 -44.73523 36118 ft 446 kts 251°
2026-05-08 23:04 52.19578 -44.83076 36116 ft 446 kts 250°
2026-05-08 23:04 52.17674 -44.92710 36111 ft 445 kts 250°
2026-05-08 23:05 52.15768 -45.02306 36091 ft 445 kts 250°
2026-05-08 23:05 52.13855 -45.11888 36090 ft 445 kts 250°
2026-05-08 23:06 52.11935 -45.21459 36079 ft 445 kts 250°
2026-05-08 23:06 52.10008 -45.31021 36088 ft 445 kts 250°
2026-05-08 23:07 52.08072 -45.40579 36071 ft 445 kts 250°
2026-05-08 23:07 52.06128 -45.50128 36071 ft 445 kts 249°
2026-05-08 23:08 52.04177 -45.59668 36048 ft 444 kts 249°
2026-05-08 23:08 52.02224 -45.69171 36055 ft 443 kts 249°
2026-05-08 23:09 52.00266 -45.78655 36049 ft 442 kts 249°
2026-05-08 23:09 51.98636 -45.86515 36042 ft 442 kts 248°
2026-05-08 23:10 51.96671 -45.95950 36031 ft 441 kts 248°
2026-05-08 23:10 51.94700 -46.05366 36021 ft 441 kts 248°
2026-05-08 23:11 51.92723 -46.14770 36025 ft 441 kts 248°
2026-05-08 23:11 51.90737 -46.24171 36011 ft 441 kts 248°
2026-05-08 23:12 51.88744 -46.33561 36016 ft 441 kts 248°
2026-05-08 23:12 51.86740 -46.42960 35993 ft 441 kts 248°
2026-05-08 23:13 51.84732 -46.52337 35996 ft 441 kts 248°
2026-05-08 23:13 51.82713 -46.61716 35985 ft 441 kts 248°
2026-05-08 23:14 51.80689 -46.71080 35986 ft 441 kts 247°
2026-05-08 23:14 51.78658 -46.80434 35994 ft 441 kts 247°
2026-05-08 23:15 51.76620 -46.89779 35972 ft 441 kts 247°
2026-05-08 23:15 51.74573 -46.99117 35963 ft 441 kts 246°
2026-05-08 23:16 51.72522 -47.08437 35964 ft 441 kts 246°
2026-05-08 23:16 51.70464 -47.17745 35955 ft 441 kts 246°
2026-05-08 23:17 51.68414 -47.26974 35964 ft 440 kts 246°
2026-05-08 23:17 51.66340 -47.36268 35951 ft 441 kts 246°
2026-05-08 23:18 51.64261 -47.45546 35952 ft 441 kts 246°
2026-05-08 23:18 51.62160 -47.54879 35946 ft 440 kts 246°
2026-05-08 23:19 51.60080 -47.64079 35941 ft 441 kts 246°
2026-05-08 23:19 51.57965 -47.73398 35962 ft 441 kts 245°
2026-05-08 23:20 51.55869 -47.82582 35935 ft 440 kts 245°
2026-05-08 23:20 51.53758 -47.91801 35921 ft 439 kts 245°
2026-05-08 23:21 51.51645 -48.00989 35920 ft 438 kts 245°
2026-05-08 23:21 51.49529 -48.10147 35912 ft 437 kts 245°
2026-05-08 23:22 51.47409 -48.19284 35938 ft 437 kts 245°
2026-05-08 23:22 51.45284 -48.28402 35902 ft 436 kts 244°
2026-05-08 23:23 51.43156 -48.37495 35894 ft 436 kts 244°
2026-05-08 23:23 51.41020 -48.46581 35889 ft 435 kts 244°
2026-05-08 23:24 51.38882 -48.55641 35888 ft 435 kts 244°
2026-05-08 23:24 51.36738 -48.64687 35889 ft 435 kts 244°
2026-05-08 23:25 51.34585 -48.73733 35884 ft 435 kts 244°
2026-05-08 23:25 51.32440 -48.82708 35876 ft 435 kts 244°
2026-05-08 23:26 51.30260 -48.91794 35880 ft 435 kts 243°
2026-05-08 23:26 51.28103 -49.00741 35878 ft 434 kts 243°
2026-05-08 23:27 51.25926 -49.09741 35865 ft 434 kts 243°
2026-05-08 23:27 51.23746 -49.18714 35859 ft 433 kts 243°
2026-05-08 23:28 51.21561 -49.27669 35855 ft 433 kts 243°
2026-05-08 23:28 51.19368 -49.36622 35855 ft 433 kts 243°
2026-05-08 23:29 51.17171 -49.45555 35850 ft 433 kts 243°
2026-05-08 23:29 51.14964 -49.54491 35838 ft 433 kts 243°
2026-05-08 23:30 51.12752 -49.63417 35839 ft 434 kts 243°
2026-05-08 23:30 51.10529 -49.72345 35833 ft 434 kts 243°
2026-05-08 23:31 51.08296 -49.81281 35823 ft 435 kts 243°
2026-05-08 23:31 51.06056 -49.90211 35825 ft 435 kts 242°
2026-05-08 23:32 51.03809 -49.99139 35845 ft 435 kts 242°
2026-05-08 23:32 51.01588 -50.08102 35817 ft 437 kts 242°
2026-05-08 23:33 50.99430 -50.17132 35803 ft 437 kts 243°
2026-05-08 23:33 50.97275 -50.26143 35803 ft 436 kts 242°
2026-05-08 23:34 50.95122 -50.35069 35794 ft 436 kts 242°
2026-05-08 23:34 50.92928 -50.44098 35790 ft 436 kts 242°
2026-05-08 23:35 50.90745 -50.53043 35792 ft 436 kts 242°
2026-05-08 23:35 50.88552 -50.61991 35785 ft 435 kts 242°
2026-05-08 23:36 50.86355 -50.70920 35772 ft 435 kts 242°
2026-05-08 23:36 50.84168 -50.79775 35772 ft 435 kts 242°
2026-05-08 23:37 50.81947 -50.88731 35758 ft 434 kts 242°
2026-05-08 23:37 50.79749 -50.97556 35775 ft 434 kts 241°
2026-05-08 23:38 50.77530 -51.06437 35765 ft 435 kts 241°
2026-05-08 23:38 50.75302 -51.15314 35751 ft 434 kts 241°
2026-05-08 23:39 50.73073 -51.24159 35736 ft 433 kts 240°
2026-05-08 23:39 50.70845 -51.32968 35737 ft 432 kts 240°
2026-05-08 23:40 50.68613 -51.41759 35751 ft 431 kts 240°
2026-05-08 23:40 50.66378 -51.50524 35736 ft 431 kts 240°
2026-05-08 23:41 50.64137 -51.59278 35721 ft 430 kts 240°
2026-05-08 23:41 50.61894 -51.68008 35717 ft 430 kts 240°
2026-05-08 23:42 50.59644 -51.76732 35714 ft 430 kts 240°
2026-05-08 23:42 50.57389 -51.85445 35707 ft 430 kts 240°
2026-05-08 23:43 50.55130 -51.94144 35713 ft 430 kts 239°
2026-05-08 23:43 50.53103 -52.03028 35749 ft 437 kts 246°
2026-05-08 23:44 50.51961 -52.12539 35706 ft 444 kts 251°
2026-05-08 23:44 50.50911 -52.22080 35688 ft 443 kts 250°
2026-05-08 23:45 50.49821 -52.31585 35680 ft 442 kts 250°
2026-05-08 23:45 50.48726 -52.41074 35700 ft 441 kts 249°
2026-05-08 23:46 50.47625 -52.50561 35685 ft 442 kts 249°
2026-05-08 23:46 50.46518 -52.60067 35674 ft 443 kts 249°
2026-05-08 23:47 50.45409 -52.69522 35665 ft 444 kts 249°
2026-05-08 23:47 50.44286 -52.79042 35688 ft 445 kts 249°
2026-05-08 23:48 50.43149 -52.88577 35662 ft 445 kts 249°
2026-05-08 23:48 50.42005 -52.98115 35686 ft 445 kts 248°
2026-05-08 23:49 50.40854 -53.07647 35667 ft 445 kts 248°
2026-05-08 23:49 50.39697 -53.17163 35645 ft 444 kts 248°
2026-05-08 23:50 50.38532 -53.26668 35658 ft 444 kts 248°
2026-05-08 23:50 50.37362 -53.36153 35649 ft 443 kts 248°
2026-05-08 23:51 50.36185 -53.45623 35703 ft 443 kts 248°
2026-05-08 23:51 50.35000 -53.55083 35656 ft 442 kts 247°
2026-05-08 23:52 50.33809 -53.64534 35644 ft 442 kts 247°
2026-05-08 23:52 50.32611 -53.73973 35643 ft 442 kts 247°
2026-05-08 23:53 50.31406 -53.83405 35643 ft 442 kts 247°
2026-05-08 23:53 50.30194 -53.92824 35643 ft 442 kts 247°
2026-05-08 23:54 50.28972 -54.02249 35646 ft 442 kts 247°
2026-05-08 23:55 50.27127 -54.16371 35708 ft 442 kts 246°
2026-05-08 23:55 50.25884 -54.25803 35648 ft 443 kts 246°
2026-05-08 23:56 50.24848 -54.33627 35653 ft 442 kts 246°
2026-05-08 23:56 50.23595 -54.43032 35649 ft 442 kts 246°
2026-05-08 23:57 50.22134 -54.53914 35650 ft 441 kts 246°
2026-05-08 23:57 50.21073 -54.61762 35652 ft 441 kts 246°
2026-05-08 23:58 50.19801 -54.71113 35690 ft 440 kts 246°
2026-05-08 23:58 50.18519 -54.80475 35662 ft 441 kts 246°
2026-05-08 23:59 50.17230 -54.89838 35705 ft 442 kts 245°
2026-05-08 23:59 50.15930 -54.99216 35672 ft 442 kts 245°
2026-05-09 00:00 50.13383 -55.17435 35667 ft 441 kts 245°
2026-05-09 00:00 50.08464 -55.51978 35663 ft 441 kts 245°
2026-05-09 00:01 50.03081 -55.88917 35717 ft 440 kts 245°
2026-05-09 00:01 49.97542 -56.26021 35764 ft 441 kts 244°
2026-05-09 00:02 49.91858 -56.63218 35679 ft 443 kts 244°
2026-05-09 00:02 49.86056 -57.00311 35719 ft 444 kts 245°
2026-05-09 00:03 49.80094 -57.37588 35674 ft 446 kts 244°
2026-05-09 00:03 49.73997 -57.74851 35753 ft 450 kts 245°
2026-05-09 00:04 49.69329 -58.02852 35732 ft 449 kts 245°
2026-05-09 00:04 49.62963 -58.40256 35742 ft 451 kts 245°
2026-05-09 00:05 49.57651 -58.67034 35735 ft 429 kts 231°
2026-05-09 00:05 49.51973 -58.84007 35735 ft 447 kts 242°
2026-05-09 00:06 49.45206 -59.21545 35758 ft 460 kts 247°
2026-05-09 00:06 49.38315 -59.59459 35724 ft 462 kts 246°
2026-05-09 00:07 49.31280 -59.97359 35740 ft 462 kts 246°
2026-05-09 00:07 49.24133 -60.35093 35771 ft 461 kts 247°
2026-05-09 00:08 49.16865 -60.72703 35752 ft 461 kts 247°
2026-05-09 00:08 49.09454 -61.10302 35757 ft 463 kts 247°
2026-05-09 00:09 49.01887 -61.47969 35750 ft 465 kts 248°
2026-05-09 00:09 48.94662 -61.83271 35775 ft 466 kts 248°
2026-05-09 00:10 48.86871 -62.20648 35772 ft 467 kts 248°
2026-05-09 00:10 48.78902 -62.58183 35764 ft 468 kts 248°
2026-05-09 00:11 48.70802 -62.95634 35795 ft 468 kts 248°
2026-05-09 00:11 48.62568 -63.33026 35794 ft 468 kts 248°
2026-05-09 00:12 48.54212 -63.70300 35801 ft 469 kts 248°
2026-05-09 00:12 48.45709 -64.07569 35802 ft 469 kts 248°
2026-05-09 00:13 48.37105 -64.44633 35785 ft 470 kts 249°
2026-05-09 00:13 48.32520 -64.64124 35787 ft 469 kts 249°
2026-05-09 00:14 48.28140 -64.82588 35804 ft 469 kts 249°
2026-05-09 00:14 48.23724 -65.01042 35805 ft 470 kts 248°
2026-05-09 00:15 48.19279 -65.19463 35783 ft 470 kts 248°
2026-05-09 00:15 48.14807 -65.37842 35793 ft 470 kts 249°
2026-05-09 00:16 48.10300 -65.56217 35777 ft 470 kts 249°
2026-05-09 00:16 48.05770 -65.74531 35792 ft 469 kts 248°
2026-05-09 00:17 48.01213 -65.92802 35813 ft 468 kts 249°
2026-05-09 00:17 47.96643 -66.10979 35804 ft 468 kts 249°
2026-05-09 00:18 47.92045 -66.29125 35793 ft 468 kts 249°
2026-05-09 00:18 47.87417 -66.47243 35801 ft 467 kts 248°
2026-05-09 00:19 47.82817 -66.65107 35814 ft 467 kts 249°
2026-05-09 00:19 47.78173 -66.83003 35806 ft 467 kts 249°
2026-05-09 00:20 47.73477 -67.00961 35809 ft 466 kts 248°
2026-05-09 00:20 47.68756 -67.18880 35817 ft 466 kts 248°
2026-05-09 00:21 47.64012 -67.36742 35815 ft 465 kts 248°
2026-05-09 00:21 47.59240 -67.54576 35818 ft 465 kts 248°
2026-05-09 00:22 47.54453 -67.72342 35822 ft 464 kts 248°
2026-05-09 00:22 47.50373 -67.90399 35821 ft 463 kts 253°
2026-05-09 00:23 47.46837 -68.07760 35832 ft 465 kts 253°
2026-05-09 00:23 47.45003 -68.16553 36356 ft 465 kts 253°
2026-05-09 00:23 47.44046 -68.21111 36698 ft 464 kts 253°
2026-05-09 00:23 47.43090 -68.25652 37021 ft 463 kts 253°
2026-05-09 00:24 47.42147 -68.30119 37328 ft 461 kts 253°
2026-05-09 00:24 47.41193 -68.34633 37637 ft 460 kts 253°
2026-05-09 00:24 47.39986 -68.40327 37745 ft 465 kts 253°
2026-05-09 00:25 47.36028 -68.58900 37826 ft 474 kts 252°
2026-05-09 00:25 47.32103 -68.77153 37806 ft 464 kts 252°
2026-05-09 00:26 47.28230 -68.95012 37816 ft 452 kts 252°
2026-05-09 00:26 47.24380 -69.12610 37842 ft 455 kts 252°
2026-05-09 00:27 47.20431 -69.30512 37847 ft 464 kts 252°
2026-05-09 00:27 47.16398 -69.48633 37842 ft 466 kts 252°
2026-05-09 00:28 47.12377 -69.66548 37835 ft 457 kts 252°
2026-05-09 00:28 47.08400 -69.84121 37844 ft 450 kts 252°
2026-05-09 00:29 47.04416 -70.01581 37859 ft 455 kts 252°
2026-05-09 00:29 47.00338 -70.19311 37859 ft 463 kts 252°
2026-05-09 00:30 46.96203 -70.37133 37851 ft 465 kts 252°
2026-05-09 00:30 46.92051 -70.54880 37842 ft 455 kts 252°
2026-05-09 00:31 46.87964 -70.72221 37850 ft 448 kts 252°
2026-05-09 00:31 46.83860 -70.89493 37874 ft 453 kts 252°
2026-05-09 00:32 46.79663 -71.07017 37869 ft 460 kts 252°
2026-05-09 00:32 46.75398 -71.24681 37867 ft 462 kts 251°
2026-05-09 00:33 46.71134 -71.42201 37851 ft 453 kts 251°
2026-05-09 00:33 46.66938 -71.59307 37872 ft 446 kts 251°
2026-05-09 00:34 46.62741 -71.76297 37883 ft 450 kts 251°
2026-05-09 00:34 46.58434 -71.93598 37877 ft 459 kts 251°
2026-05-09 00:35 46.54752 -72.08281 37865 ft 462 kts 251°
2026-05-09 00:35 46.51852 -72.19778 37855 ft 458 kts 251°